Погода в Щиграх

Россия / Курская область     51°52′34″N   36°54′43″E
темп.,
°C
ветер,
м/с
пор.,
м/с
влажн.,
%
обл.,
%
осадки,
мм/ч
давл.,
гПа
погр.,
м
28 сентября, вт
вт2800:00+7с4893100 0.1 1022297
03:00+8с489299 0.2 1022377
06:00+8с4792100 0.2 1023369
09:00+8св4791100 0.6 1024543
12:00+8св577999 0.1 1026758
15:00+8св5673100 0.2 1027812
18:00+7св5783100 0.1 1029715
21:00+6св5982100 0.1 1030637
29 сентября, ср
ср2900:00+6всв4779100 0.0 1032563
03:00+6св4777100 0.0 1032398
06:00+2св38875 0.0 1034177
09:00+6св47703 0.0 1034417
12:00+10всв56505 0.0 10341101
15:00+11св45455 0.0 10331254
18:00+8св34603 0.0 103350
21:00+5св34696 0.0 103453
30 сентября, чт
чт3000:00+4св2274100 0.0 103423
03:00+4ссв22775 0.0 103512
06:00+3ссв22815 0.0 103521
09:00+7св23645 0.0 1035262
12:00+11всв33495 0.0 10351021
15:00+12всв23475 0.0 10341304
18:00+9св23625 0.0 103423
21:00+7всв22701 0.0 103514
1 октября, пт
пт100:00+6в22743 0.0 103610
03:00+5всв11775 0.0 103610
06:00+4всв11805 0.0 103610
09:00+8в11645 0.0 1037189
12:00+12вюв22515 0.0 1036936
15:00+13вюв11465 0.0 10351219
18:00+10в11580 0.0 103410
21:00+8вюв12650 0.0 103510
2 октября, сб
сб200:00+7юв22690 0.0 103510
03:00+6ююв11730 0.0 103510
06:00+5ююв22751 0.0 103510
09:00+9ююв23605 0.0 1035201
12:00+14ююв33485 0.0 10341002
15:00+15ююв33465 0.0 10331289
18:00+11юв22605 0.0 103214
21:00+9юв34705 0.0 103345